Regional Weather Roundup
Issued by NWS Bismarck, ND

Home | Current Version | Previous Version | Text Only | Print | Product List | Glossary On
Versions: 1 2 3 4 5 6 7 8 9 10 11 12 13 14 15 16 17 18 19 20 21 22 23 24 25 26 27 28 29 30 31 32 33 34 35 36 37 38 39 40 41 42 43 44 45 46 47 48 49 50
000
ASUS43 KBIS 251910
RWRBIS

NWR BROADCAST TEXT
NATIONAL WEATHER SERVICE BISMARCK ND
200 PM CDT SAT MAR 25 2017

NOTE: "FAIR" INDICATES FEW OR NO CLOUDS BELOW 12,000 FEET WITH NO
SIGNIFICANT WEATHER AND/OR OBSTRUCTIONS TO VISIBILITY.


CITY           SKY/WX    TMP DP  RH WIND       PRES   REMARKS
WILLISTON      CLOUDY    57  31  37 W13       29.89S
MINOT          PTSUNNY   44  34  67 S15G23    29.91F
MINOT AFB      CLOUDY    42  35  76 S17       29.90F
BISMARCK       FAIR      43  34  70 SE13      30.00F
DICKINSON      FAIR      57  28  33 N9        29.89F
GARRISON         N/A     41  34  76 S14       29.94F
HETTINGER ARPT FAIR      53  33  46 S7        29.93F
JAMESTOWN      PTSUNNY   39  33  79 SE16G25   30.05F
HAZEN          FAIR      46  34  61 S16       29.97F
LINTON           N/A     43  39  87 SE16      30.02F
MANDAN         FAIR      41  36  81 S21       29.98F
RUGBY            N/A     34  34 100 S17G26    29.96F
STANLEY        FAIR      54  41  62 SW14      29.91S
TIOGA          MOCLDY    54  41  62 W14       29.88F
WATFORD CITY   FAIR      55  34  44 W14       29.89S
$$

CITY           SKY/WX    TMP DP  RH WIND       PRES   REMARKS
GRAND FORKS    CLOUDY    37  34  89 S17       30.13F
GRAND FORKS AF CLOUDY    35  32  88 S15       30.13S
DEVILS LAKE    CLOUDY    36  31  82 S18       30.04F
FARGO          CLOUDY    38  33  82 S16       30.14F
CAVALIER         N/A     36  32  87 S23       30.08F
GRAFTON        CLOUDY    37  34  87 S18       30.14F
GWINNER        CLOUDY    37  32  81 MISG      30.11S
LANGDON        CLOUDY    36  34  93 S23       30.03F
ROLLA          CLOUDY    32  32 100 S17       29.98F
$$

CITY           SKY/WX    TMP DP  RH WIND       PRES   REMARKS
ABERDEEN       PTSUNNY   43  31  62 S10       30.09F
MOBRIDGE       FAIR      45  32  60 S13       29.99F
BUFFALO          N/A     60  34  37 N8        29.84F
RAPID CITY     FAIR      64  32  30 NE8       29.88F
GLASGOW        FAIR      57  26  30 NW14G25   29.89F
SIDNEY         FAIR      56  29  35 W12       29.92R
WOLF POINT     FAIR      61  29  29 W17       29.89F
GLENDIVE       FAIR      57  29  34 NW14      29.92S
MILES CITY     CLOUDY    57  27  31 NW13      29.95S
BAKER          FAIR      59  32  36 N12       29.93S
$$

CITY           SKY/WX    TMP DP  RH WIND       PRES   REMARKS
BILLINGS       PTSUNNY   52  25  35 W9        29.97F
GREAT FALLS    FAIR      53  19  26 W14G26    29.94F
REGINA         MOSUNNY   54  36  50 W32       29.75S
ESTEVAN        MOSUNNY   54  39  58 SW10      29.83F
$$





USA.gov is the U.S. government's official web portal to all federal, state and local government web resources and services.